COSMOS 1174

Satellite information

Favourite Embed

Satellite Type and Status

PAYLOADIN ORBIT

Key statistics

Satellite COSMOS 1174 at a glance.

Uptime

16516

Days in orbit

Revolutions

≈ 14.5

Per day

Orbit

LEO

Low Earth Orbit

Inclination

66.1

Latest

Satellite identification and parameters

Extended collection of information and parameters for COSMOS 1174.

Object identification

Identified? True

Debris? False

Object name: COSMOS 1174

International designator: 1980-030A

Object number (NORAD): 11765

Object ID (CCSDS): 11765

Country: COMMONWEALTH OF INDEPENDENT STATES (CIS)

Current information (Y/N): Y

RCS size: LARGE

Orbital parameters

Period: 98.995 minutes

Inclination: 66.0812 deg

SMA: 7088.751 km

Apoapsis: 1061.516 km

Periapsis: 359.716 km

RAAN: 115.8751 deg

Eccentricy: 0.049501

Argument of periapsis: 319.8571 deg

Mean anomaly: 36.6917 deg

Mean motion: 14.54615409 rev/day

Mean motion (dot): 0.00003825 rev/day2

B* drag term: 0.00016657 1/REarth

Two-line elements (TLE)

Creation date: July 6, 2025, 10:36 p.m.

Reference frame: TEME

Reference center: EARTH

Epoch: July 6, 2025, 8:54 p.m. UTC

TLE line 0: 0 COSMOS 1174

TLE line 1: 1 11765U 80030A 25187.87125700 .00003825 00000-0 16657-3 0 9990

TLE line 2: 2 11765 66.0812 115.8751 0495010 319.8571 36.6917 14.54615409331149

Live tracking on map

Real-time ground track for satellite COSMOS 1174.

In-orbit conjunctions

A list of the most updated potential collisions computed for object COSMOS 1174.

Target Orbit TCA Probability of collision Miss distance Type
FENGYUN 1C DEB SSO 2025-03-04 22:42:49 0.0001620704 429.0 (m) DEBRIS
NOAA 16 DEB SSO 2024-10-04 23:43:55 0.0001007982 862.0 (m) DEBRIS

Associated space launch

Second generation ASAT satellite

COSMOS 1174 was lifted into orbit during the mission ‘Tsiklon-2 | IS-A 10’, on board a Tsiklon-2 space rocket.

The launch took place on April 18, 1980, 12:51 a.m. from 90.

For more information about the launch, click the button.

Launch to space Tsiklon-2 | IS-A 10
Tsiklon-2 | IS-A 10

Agency: N/A

Status: Launch Successful

Launch date: April 18, 1980, 12:51 a.m. UTC

Rocket: Tsiklon-2

Launch pad: 90

Location: Baikonur Cosmodrome, Republic of Kazakhstan

...

Latest news about this satellite

There are no fresh news available about this satellite. Check back as we update our databases every day.


Newsletter sign-up

Weekly statistics, charts and insights to help you stay on top of the space industry.